Weather History for North Las Vegas, NV

Change the Weather History Date:

Tuesday, November 6, 2012

  Actual Average Record
Temperature  
Mean Temperature 69 °F -  
Max Temperature 81 °F 70 °F 82 °F (1958)
Min Temperature 57 °F 44 °F 25 °F (1951)
Cooling Degree Days 4    
Growing Degree Days 19 (Base 50)    
Moisture  
Dew Point 33 °F    
Average Humidity 30    
Maximum Humidity 44    
Minimum Humidity 15    
Precipitation  
Precipitation 0.00 in - - ()
Sea Level Pressure  
Sea Level Pressure 30.13 in    
Wind  
Wind Speed 3 mph (NW)    
Max Wind Speed 9 mph    
Max Gust Speed -    
Visibility 10 miles    
Events      
Averages and records for this station are not official NWS values.
T = Trace of Precipitation, MM = Missing Value Source: NWS Daily Summary

Daily Weather History Graph

Daily Weather History Graph

Search for Another Location

Airport:

Trip Planner

Search our weather history database for the weather conditions in past years. The results will help you decide how hot, cold, wet, or windy it might be!

Date:

Astronomy

Nov. 06, 2012 Rise Set
Actual Time 6:09 AM PST 4:39 PM PST
Civil Twilight 5:42 AM PST 5:06 PM PST
Nautical Twilight 5:11 AM PST 5:36 PM PST
Astronomical Twilight 4:41 AM PST 6:06 PM PST
Moon 11:20 PM PST (11/6) 12:05 PM PST (11/6)
Length of Visible Light 11h 23m
Length of Day
10h 30m
Waning Gibbous, 52% of the Moon is Illuminated
Nov 6
Waning Gibbous
Nov 6
Last Quarter
Nov 13
New
Nov 20
First Quarter
Nov 28
Full

Hourly Weather History & Observations

Time (PST) Temp. Dew Point Humidity Pressure Visibility Wind Dir Wind Speed Gust Speed Precip Events Conditions
12:53 AM 61.0 °F 34.0 °F 36% 30.16 in 10.0 mi Calm Calm - N/A   Clear
1:53 AM 60.1 °F 35.1 °F 39% 30.16 in 10.0 mi NW 9.2 mph - N/A   Clear
2:53 AM 64.0 °F 33.1 °F 31% 30.15 in 10.0 mi NNW 6.9 mph - N/A   Clear
3:53 AM 60.1 °F 34.0 °F 38% 30.16 in 10.0 mi WNW 4.6 mph - N/A   Clear
4:53 AM 57.9 °F 34.0 °F 41% 30.17 in 10.0 mi NW 5.8 mph - N/A   Clear
5:53 AM 57.0 °F 35.1 °F 44% 30.19 in 10.0 mi West 4.6 mph - N/A   Clear
6:53 AM 60.1 °F 35.1 °F 39% 30.21 in 10.0 mi West 3.5 mph - N/A   Clear
7:53 AM 64.9 °F 35.1 °F 33% 30.22 in 10.0 mi NW 4.6 mph - N/A   Clear
8:53 AM 70.0 °F 33.1 °F 26% 30.21 in 10.0 mi NNW 4.6 mph - N/A   Clear
9:53 AM 73.0 °F 34.0 °F 24% 30.20 in 10.0 mi Calm Calm - N/A   Clear
10:53 AM 75.0 °F 33.1 °F 22% 30.18 in 10.0 mi Calm Calm - N/A   Clear
11:53 AM 78.1 °F 30.9 °F 18% 30.14 in 10.0 mi Calm Calm - N/A   Clear
12:53 PM 79.0 °F 30.0 °F 17% 30.11 in 10.0 mi Calm Calm - N/A   Clear
1:53 PM 81.0 °F 28.9 °F 15% 30.09 in 10.0 mi Calm Calm - N/A   Clear
2:53 PM 80.1 °F 28.0 °F 15% 30.08 in 10.0 mi South 4.6 mph - N/A   Clear
3:53 PM 80.1 °F 28.0 °F 15% 30.07 in 10.0 mi Calm Calm - N/A   Clear
4:53 PM 78.1 °F 28.9 °F 17% 30.06 in 10.0 mi Calm Calm - N/A   Clear
5:53 PM 71.1 °F 33.1 °F 25% 30.08 in 10.0 mi NW 6.9 mph - N/A   Clear
6:53 PM 66.9 °F 37.0 °F 33% 30.08 in 10.0 mi WNW 6.9 mph - N/A   Clear
7:53 PM 66.0 °F 36.0 °F 33% 30.08 in 10.0 mi WNW 4.6 mph - N/A   Clear
8:53 PM 63.0 °F 37.0 °F 38% 30.08 in 10.0 mi NNW 3.5 mph - N/A   Clear
9:53 PM 62.1 °F 36.0 °F 38% 30.09 in 10.0 mi North 4.6 mph - N/A   Clear
10:53 PM 59.0 °F 36.0 °F 42% 30.09 in 10.0 mi West 3.5 mph - N/A   Clear
11:53 PM 60.1 °F 36.0 °F 41% 30.08 in 10.0 mi WNW 3.5 mph - N/A   Clear